Location: Borovka
(49.7741°N, 14.5280°E)
Time: 22:48:26
(UTC+00:00)

METEOR M2 - Visible Passes

Search period start: 13 March 2026 00:00
Search period end: 23 March 2026 00:00
Orbit: 817 x 824 km, 98.5° (Epoch: 13 March)

Date Brightness Start Highest point End Pass type
(mag) Time Alt. Az. Time Alt. Az. Time Alt. Az.
13 Mar ? 02:03:13 10° NE 02:06:27 16° E 02:09:42 10° SE visible
13 Mar ? 03:41:52 10° NNE 03:47:18 86° WNW 03:52:41 10° SSW visible
14 Mar ? 01:44:31 10° ENE 01:45:28 10° E 01:46:25 10° E visible
14 Mar ? 03:21:14 10° NNE 03:26:38 67° ESE 03:31:58 10° S visible
15 Mar ? 03:00:42 10° NNE 03:05:53 46° E 03:11:02 10° S visible
15 Mar ? 04:41:07 10° N 04:45:51 32° WNW 04:50:33 10° WSW visible
16 Mar ? 02:40:17 10° NNE 02:45:05 32° E 02:49:51 10° SSE visible
16 Mar ? 04:20:14 10° N 04:25:20 45° WNW 04:30:26 10° SW visible
17 Mar ? 02:20:04 10° NE 02:24:14 22° E 02:28:20 10° SE visible
17 Mar ? 03:59:26 10° N 04:04:47 64° WNW 04:10:05 10° SSW visible
18 Mar ? 02:00:13 10° NE 02:03:17 15° E 02:06:20 10° ESE visible
18 Mar ? 03:38:44 10° NNE 03:44:10 90° W 03:49:33 10° SSW visible
19 Mar ? 03:18:06 10° NNE 03:23:29 63° ESE 03:28:48 10° S visible
20 Mar ? 02:57:35 10° NNE 03:02:43 44° E 03:07:50 10° S visible
21 Mar ? 02:37:11 10° NNE 02:41:55 30° E 02:46:37 10° SSE visible
21 Mar ? 04:17:04 10° N 04:22:13 47° WNW 04:27:20 10° SW visible
22 Mar ? 02:17:00 10° NE 02:21:02 21° E 02:25:03 10° SE visible
22 Mar ? 03:56:17 10° N 04:01:39 67° WNW 04:06:58 10° SSW visible
